When you browse on this site, cookies collect data to enhance your experience and personalize the content and advertising you see.
Visit our Privacy Policy to learn more. By continuing to use the site, you agree to this use of cookies and data.
  • Em Portugal
  • Lista de países
  • Para 7 dias
  • Temperatura da água
  • Mapas de satélite
  • Mapa do tempo
  • Widgets de tempo
  • user-avatar
    Iniciar Sessão

    Previsão horária em Kashevarovo

    Hoje, 21 Abril, Domingo

    Tempo Temperatura Precipitação Vento Pressão Humidade
    00:00 +5°C° 0.2 mm 3 m/s 765 mmHg 68%
    01:00 +4°C° 0.2 mm 3 m/s 765 mmHg 70%
    02:00 +5°C° 0 mm 2 m/s 764 mmHg 80%
    03:00 +3°C° 0 mm 3 m/s 764 mmHg 79%
    04:00 +3°C° 0 mm 3 m/s 764 mmHg 79%
    05:00 +3°C° 0 mm 3 m/s 764 mmHg 78%
    06:00 +4°C° 0 mm 3 m/s 765 mmHg 73%
    07:00 +5°C° 0 mm 4 m/s 765 mmHg 69%
    08:00 +6°C° 0 mm 4 m/s 765 mmHg 62%
    09:00 +9°C° 0 mm 3 m/s 765 mmHg 56%
    10:00 +10°C° 0 mm 3 m/s 765 mmHg 50%
    11:00 +12°C° 0 mm 3 m/s 765 mmHg 43%
    12:00 +13°C° 0 mm 3 m/s 765 mmHg 41%
    13:00 +13°C° 0 mm 3 m/s 765 mmHg 38%
    14:00 +14°C° 0 mm 3 m/s 765 mmHg 36%
    15:00 +14°C° 0 mm 3 m/s 765 mmHg 36%
    16:00 +14°C° 0 mm 3 m/s 765 mmHg 37%
    17:00 +15°C° 0 mm 2 m/s 765 mmHg 37%
    18:00 +13°C° 0 mm 2 m/s 765 mmHg 44%
    19:00 +12°C° 0 mm 2 m/s 765 mmHg 51%
    20:00 +9°C° 0 mm 2 m/s 765 mmHg 58%
    21:00 +8°C° 0 mm 2 m/s 766 mmHg 60%
    22:00 +8°C° 0 mm 2 m/s 766 mmHg 63%
    23:00 +7°C° 0 mm 2 m/s 766 mmHg 66%

    Amanhã, 22 Abril, Segunda-feira

    Tempo Temperatura Precipitação Vento Pressão Humidade
    00:00 +8°C° 0 mm 1 m/s 766 mmHg 68%
    01:00 +7°C° 0 mm 1 m/s 766 mmHg 70%
    02:00 +7°C° 0 mm 1 m/s 767 mmHg 72%
    03:00 +7°C° 0 mm 1 m/s 767 mmHg 74%
    04:00 +7°C° 0 mm 1 m/s 767 mmHg 76%
    05:00 +6°C° 0 mm 1 m/s 767 mmHg 78%
    06:00 +8°C° 0 mm 1 m/s 767 mmHg 71%
    07:00 +10°C° 0 mm 1 m/s 767 mmHg 65%
    08:00 +12°C° 0 mm 1 m/s 767 mmHg 58%
    09:00 +14°C° 0 mm 2 m/s 767 mmHg 51%
    10:00 +16°C° 0 mm 2 m/s 768 mmHg 44%
    11:00 +18°C° 0 mm 2 m/s 768 mmHg 37%
    12:00 +18°C° 0 mm 2 m/s 768 mmHg 35%
    13:00 +19°C° 0 mm 2 m/s 767 mmHg 33%
    14:00 +19°C° 0 mm 2 m/s 767 mmHg 31%
    15:00 +19°C° 0 mm 2 m/s 767 mmHg 33%
    16:00 +19°C° 0 mm 2 m/s 767 mmHg 34%
    17:00 +18°C° 0 mm 2 m/s 767 mmHg 35%
    18:00 +17°C° 0 mm 2 m/s 767 mmHg 42%
    19:00 +15°C° 0 mm 2 m/s 767 mmHg 49%
    20:00 +13°C° 0 mm 2 m/s 767 mmHg 55%
    21:00 +12°C° 0 mm 2 m/s 768 mmHg 57%
    22:00 +10°C° 0 mm 2 m/s 768 mmHg 59%
    23:00 +10°C° 0 mm 2 m/s 768 mmHg 61%

    Depois de amanhã, 23 Abril, Terça-feira

    Tempo Temperatura Precipitação Vento Pressão Humidade
    00:00 +9°C° 0 mm 2 m/s 768 mmHg 62%
    01:00 +9°C° 0 mm 2 m/s 769 mmHg 63%
    02:00 +8°C° 0 mm 2 m/s 769 mmHg 64%
    03:00 +9°C° 0 mm 1 m/s 769 mmHg 65%
    04:00 +8°C° 0 mm 1 m/s 769 mmHg 67%
    05:00 +8°C° 0 mm 1 m/s 769 mmHg 68%
    06:00 +10°C° 0 mm 1 m/s 770 mmHg 62%
    07:00 +12°C° 0 mm 1 m/s 770 mmHg 56%
    08:00 +14°C° 0 mm 1 m/s 770 mmHg 50%
    09:00 +15°C° 0 mm 1 m/s 770 mmHg 44%
    10:00 +18°C° 0 mm 1 m/s 770 mmHg 39%
    11:00 +18°C° 0 mm 2 m/s 770 mmHg 33%
    12:00 +19°C° 0 mm 2 m/s 769 mmHg 32%
    13:00 +20°C° 0 mm 1 m/s 769 mmHg 31%
    14:00 +21°C° 0 mm 1 m/s 769 mmHg 30%
    15:00 +21°C° 0 mm 1 m/s 769 mmHg 31%
    16:00 +20°C° 0 mm 1 m/s 768 mmHg 31%
    17:00 +20°C° 0 mm 1 m/s 768 mmHg 32%
    18:00 +18°C° 0 mm 1 m/s 768 mmHg 37%
    19:00 +15°C° 0 mm 1 m/s 768 mmHg 42%
    20:00 +13°C° 0 mm 1 m/s 768 mmHg 47%
    21:00 +13°C° 0 mm 1 m/s 768 mmHg 50%
    22:00 +12°C° 0 mm 1 m/s 769 mmHg 52%
    23:00 +11°C° 0 mm 1 m/s 769 mmHg 54%

    24 Abril, Quarta-feira

    Tempo Temperatura Precipitação Vento Pressão Humidade
    00:00 +11°C° 0 mm 1 m/s 769 mmHg 57%
    01:00 +10°C° 0 mm 1 m/s 769 mmHg 59%
    02:00 +10°C° 0 mm 1 m/s 769 mmHg 61%
    03:00 +8°C° 0 mm 0 m/s 769 mmHg 63%
    04:00 +8°C° 0 mm 0 m/s 769 mmHg 64%
    05:00 +8°C° 0 mm 0 m/s 770 mmHg 65%
    06:00 +11°C° 0 mm 1 m/s 770 mmHg 60%
    07:00 +13°C° 0 mm 1 m/s 770 mmHg 54%
    08:00 +15°C° 0 mm 1 m/s 770 mmHg 49%
    09:00 +16°C° 0 mm 1 m/s 769 mmHg 43%
    10:00 +18°C° 0 mm 2 m/s 769 mmHg 38%
    11:00 +20°C° 0 mm 2 m/s 769 mmHg 33%
    12:00 +20°C° 0 mm 2 m/s 769 mmHg 32%
    13:00 +20°C° 0 mm 3 m/s 768 mmHg 31%
    14:00 +21°C° 0 mm 3 m/s 768 mmHg 31%
    15:00 +21°C° 0 mm 3 m/s 768 mmHg 32%
    16:00 +21°C° 0 mm 3 m/s 767 mmHg 33%
    17:00 +20°C° 0 mm 3 m/s 767 mmHg 34%
    18:00 +18°C° 0 mm 2 m/s 767 mmHg 41%
    19:00 +16°C° 0 mm 2 m/s 767 mmHg 47%
    20:00 +14°C° 0 mm 2 m/s 767 mmHg 54%
    21:00 +14°C° 0 mm 2 m/s 767 mmHg 57%
    22:00 +13°C° 0 mm 2 m/s 767 mmHg 60%
    23:00 +12°C° 0 mm 2 m/s 767 mmHg 63%

    25 Abril, Quinta-feira

    Tempo Temperatura Precipitação Vento Pressão Humidade
    00:00 +10°C° 0 mm 2 m/s 767 mmHg 65%
    01:00 +10°C° 0 mm 2 m/s 767 mmHg 66%
    02:00 +10°C° 0 mm 2 m/s 767 mmHg 68%
    03:00 +9°C° 0 mm 2 m/s 767 mmHg 69%
    04:00 +9°C° 0 mm 2 m/s 767 mmHg 70%
    05:00 +9°C° 0 mm 2 m/s 767 mmHg 71%
    06:00 +10°C° 0 mm 3 m/s 766 mmHg 65%
    07:00 +12°C° 0 mm 3 m/s 766 mmHg 59%
    08:00 +14°C° 0 mm 4 m/s 766 mmHg 54%
    09:00 +17°C° 0 mm 4 m/s 766 mmHg 48%
    10:00 +17°C° 0 mm 5 m/s 766 mmHg 43%
    11:00 +20°C° 0 mm 5 m/s 765 mmHg 37%
    12:00 +20°C° 0 mm 5 m/s 765 mmHg 36%
    13:00 +21°C° 0 mm 5 m/s 764 mmHg 35%
    14:00 +21°C° 0 mm 5 m/s 764 mmHg 34%
    15:00 +21°C° 0 mm 5 m/s 764 mmHg 37%
    16:00 +20°C° 0 mm 4 m/s 763 mmHg 39%
    17:00 +20°C° 0 mm 4 m/s 763 mmHg 42%
    18:00 +18°C° 0 mm 3 m/s 762 mmHg 47%
    19:00 +17°C° 0 mm 3 m/s 762 mmHg 52%
    20:00 +14°C° 0 mm 3 m/s 762 mmHg 57%
    21:00 +14°C° 0 mm 3 m/s 762 mmHg 59%
    22:00 +13°C° 0 mm 3 m/s 762 mmHg 62%
    23:00 +13°C° 0 mm 3 m/s 762 mmHg 64%

    26 Abril, Sexta-feira

    Tempo Temperatura Precipitação Vento Pressão Humidade
    00:00 +12°C° 0 mm 3 m/s 761 mmHg 66%
    01:00 +12°C° 0 mm 3 m/s 761 mmHg 68%
    02:00 +11°C° 0 mm 3 m/s 761 mmHg 71%
    03:00 +11°C° 0 mm 3 m/s 761 mmHg 72%
    04:00 +10°C° 0 mm 3 m/s 760 mmHg 74%
    05:00 +10°C° 0 mm 3 m/s 760 mmHg 76%
    06:00 +12°C° 0 mm 3 m/s 760 mmHg 71%
    07:00 +13°C° 0 mm 3 m/s 760 mmHg 66%
    08:00 +16°C° 0 mm 3 m/s 759 mmHg 60%
    09:00 +17°C° 0 mm 4 m/s 759 mmHg 55%
    10:00 +19°C° 0 mm 4 m/s 758 mmHg 51%
    11:00 +21°C° 0 mm 4 m/s 758 mmHg 46%
    12:00 +22°C° 0 mm 4 m/s 757 mmHg 44%
    13:00 +22°C° 0 mm 4 m/s 757 mmHg 43%
    14:00 +23°C° 0 mm 4 m/s 756 mmHg 42%
    15:00 +23°C° 0 mm 4 m/s 756 mmHg 43%
    16:00 +24°C° 0 mm 3 m/s 756 mmHg 44%
    17:00 +24°C° 0 mm 3 m/s 755 mmHg 44%
    18:00 +21°C° 0 mm 2 m/s 755 mmHg 52%
    19:00 +19°C° 0 mm 2 m/s 755 mmHg 59%
    20:00 +18°C° 0 mm 1 m/s 755 mmHg 66%
    21:00 +16°C° 0 mm 1 m/s 755 mmHg 69%
    22:00 +15°C° 0 mm 1 m/s 754 mmHg 73%
    23:00 +15°C° 0 mm 1 m/s 754 mmHg 76%
    Mostrar mais